Location: Baili�vre
(50.0696°N, 4.2409°E)
Time: 05:32:57
(UTC+00:00)

Cosmos 1869 Rocket - Pass Details

Date: 08 August 2020
Orbit: 604 x 634 km, 82.5° (Epoch: 19 September)

Event Time Altitude Azimuth Distance (km) Brightness Sun altitude
Exits shadow 22:13:03 52° 187° (S) 777 3.7 -20.9°
Maximum altitude 22:14:06 88° 102° (ESE) 633 3.5 -20.9°
Drops below altitude 10° 22:18:35 10° 10° (N) 2,020 7.0 -21.2°
Sets 22:20:51 0° 11° (N) 2,936 7.9 -21.4°
